Location: Svitavy
(49.7500°N, 16.4667°E)
Time: 17:30:32
(UTC+01:00)

ISS - Visible Passes

Search period start: 17 January 2020 00:00
Search period end: 27 January 2020 00:00
Orbit: 415 x 421 km, 51.6° (Epoch: 18 January)

Date Brightness Start Highest point End Pass type
(mag) Time Alt. Az. Time Alt. Az. Time Alt. Az.
20 Jan -1.3 18:26:12 10° S 18:26:50 12° SSE 18:26:50 12° SSE visible
21 Jan -1.2 19:13:11 10° SW 19:14:05 17° SW 19:14:05 17° SW visible
22 Jan -2.6 18:25:31 10° SSW 18:28:17 29° SSE 18:28:17 29° SSE visible
23 Jan -2.0 17:38:04 10° SSW 17:40:38 20° SE 17:42:24 14° ESE visible
23 Jan -1.7 19:13:41 10° WSW 19:15:21 27° WSW 19:15:21 27° WSW visible
24 Jan -3.7 18:25:44 10° SW 18:29:03 59° SSE 18:29:24 55° ESE visible
25 Jan -3.0 17:37:53 10° SW 17:41:05 41° SSE 17:43:24 16° E visible
25 Jan -1.9 19:14:25 10° W 19:16:20 31° W 19:16:20 31° W visible
26 Jan -3.8 18:26:20 10° WSW 18:29:43 82° NNW 18:30:18 57° ENE visible
